Wind_Speed
26 31 34 35 35 33 31 30 30 29 27 25 22 20 19 18 17 16 21 28 31 26 23 20 16 13 13 13 10 3 4 3 12 16 11 8 7 6 14 12 7 11 12 13 10
26 29 32 33 33 34 35 33 33 32 32 30 28 25 21 20 21 21 18 28 30 28 25 22 19 17 17 15 11 15 13 12 10 10 5 14 12 4 9 9 10 12 13 14 7
26 28 28 29 30 29 29 30 34 34 34 34 31 29 26 24 23 22 22 29 31 31 26 27 20 18 18 17 15 15 5 15 16 12 9 8 9 9 6 8 11 14 13 14 9
26 26 26 25 26 26 27 28 29 34 35 35 35 32 30 26 26 24 25 28 32 33 27 22 20 19 20 21 18 10 19 15 13 11 6 5 8 5 3 13 9 10 11 15 15
26 26 26 25 24 24 25 27 30 32 34 36 36 35 33 29 29 27 27 27 31 32 27 22 21 21 24 22 21 17 5 12 11 11 5 5 5 3 2 14 13 12 10 13 14
27 26 25 25 22 21 22 25 29 28 35 35 36 36 33 32 29 29 29 29 30 31 29 24 25 28 25 24 25 20 4 5 11 7 4 4 5 4 8 11 12 13 11 14 16
27 25 25 23 24 22 21 22 26 26 29 36 36 36 35 34 29 31 32 31 31 32 28 29 31 29 28 25 26 20 14 12 8 6 3 3 9 7 7 11 12 10 10 11 12
26 24 24 23 23 21 20 21 22 23 24 27 32 34 37 32 28 34 35 34 35 34 32 35 34 35 29 25 25 20 12 11 15 10 8 4 4 3 3 10 9 9 7 10 16
25 22 22 22 21 20 17 19 19 17 18 22 25 29 34 29 28 34 34 37 37 38 37 36 35 35 31 26 23 21 20 12 21 11 8 5 5 4 1 9 15 11 7 6 14
25 22 21 18 17 17 16 14 17 16 15 18 24 29 32 33 32 36 36 36 38 40 41 40 36 35 32 28 23 24 13 19 17 14 10 8 4 5 3 11 13 15 11 7 9
23 21 20 20 19 16 14 12 13 16 17 15 21 27 31 31 32 36 36 37 39 41 41 42 38 33 28 23 23 22 24 23 18 16 20 12 10 8 4 6 16 19 13 9 7
22 21 20 18 19 19 15 13 11 13 14 18 21 24 27 27 29 35 36 37 38 39 39 42 39 29 29 27 25 25 28 24 21 25 15 15 16 12 10 9 13 19 15 12 8
21 18 17 18 18 17 17 14 13 10 14 17 24 24 25 28 27 31 34 34 34 38 41 40 29 37 35 33 31 28 30 30 26 18 23 17 25 21 17 16 17 22 23 16 13
20 19 17 17 16 14 16 16 15 13 9 14 17 24 22 28 30 31 32 34 35 37 40 37 37 37 39 38 34 31 30 31 25 21 21 22 24 16 17 21 16 15 19 18 12
19 18 18 15 13 11 13 17 18 17 13 13 13 19 21 25 30 30 31 32 34 33 38 33 39 38 39 39 37 30 29 27 23 17 19 13 20 20 21 25 18 15 18 15 18
18 18 17 15 14 8 8 15 17 14 13 12 15 12 14 24 31 35 33 33 33 35 38 38 35 37 34 40 38 34 33 31 24 24 21 13 9 10 18 24 17 16 14 17 17
16 16 14 17 15 13 5 3 7 10 11 12 15 18 19 22 27 32 36 36 36 35 34 35 40 39 38 40 41 45 36 34 29 26 20 17 20 15 19 13 19 18 19 18 22
14 13 16 13 12 9 2 3 9 10 10 12 9 14 14 21 20 26 32 33 31 28 32 35 38 38 38 41 42 48 40 37 35 21 14 20 22 17 17 13 19 10 14 21 18
14 15 14 13 9 7 4 7 7 13 16 21 14 16 18 27 27 22 29 23 22 21 29 34 36 33 37 43 45 49 42 39 35 23 19 29 24 21 20 17 8 8 11 18 27
12 15 15 16 10 8 3 6 5 5 10 25 24 22 21 26 29 28 25 27 30 31 32 35 36 35 33 36 38 50 46 40 35 33 26 25 19 20 20 17 15 9 11 15 29
9 14 14 7 1 1 6 7 2 5 12 12 34 31 27 30 28 27 25 29 36 36 36 36 33 34 35 38 37 44 49 45 39 35 24 19 26 26 24 23 20 14 14 12 9
8 12 11 7 6 5 3 0 7 7 12 13 27 26 29 28 28 31 29 30 36 40 37 36 33 37 37 32 31 40 44 49 43 38 32 25 30 28 29 27 26 21 21 19 16
6 9 10 12 11 8 9 1 3 10 16 2 7 20 23 24 28 27 37 35 36 39 40 39 35 39 37 36 34 34 39 48 48 46 38 41 44 34 31 28 33 29 30 24 21
4 4 6 11 10 8 10 3 4 9 10 11 4 8 14 15 22 29 24 34 35 40 39 36 37 35 39 39 36 38 39 44 49 49 48 42 46 42 37 35 25 27 24 23 21
3 4 4 5 9 11 10 9 2 5 5 8 10 3 9 15 7 8 12 24 28 40 40 36 35 33 39 39 37 35 37 46 47 51 51 48 43 41 39 39 35 24 18 24 22
7 2 4 4 5 9 13 9 3 4 2 3 5 2 8 8 16 13 12 11 22 31 41 40 31 38 39 40 41 38 36 45 45 45 55 53 52 39 36 35 25 26 26 18 23
13 8 6 4 6 6 11 12 10 1 5 4 1 4 3 7 14 24 19 15 14 18 41 36 36 29 39 40 35 30 32 42 48 45 46 50 55 53 32 25 19 18 23 24 24
Wind_Direction
290 282 280 277 272 266 257 253 252 252 250 242 235 231 226 221 215 213 204 200 201 200 206 211 208 209 197 199 188 211 104 51 202 61 65 97 135 90 155 148 132 140 136 117 134
291 285 284 282 278 275 269 258 252 247 248 247 236 231 230 222 217 212 203 204 202 204 200 209 207 202 197 202 180 216 141 136 109 101 81 83 132 107 185 165 153 133 135 115 137
308 300 292 287 284 282 278 271 258 250 244 245 245 236 234 226 219 216 204 205 201 208 206 210 209 210 201 199 197 229 151 130 124 106 105 76 50 99 172 159 158 124 136 117 121
315 306 300 294 286 280 273 262 253 243 244 241 245 242 236 228 222 215 212 204 202 208 211 211 210 213 212 201 198 209 148 147 138 117 115 86 66 60 120 200 158 127 141 140 136
318 307 302 298 296 285 271 259 254 241 233 237 238 243 240 233 223 216 213 208 202 205 208 204 205 212 217 206 211 175 118 152 143 124 121 68 63 357 138 181 170 153 143 145 142
321 311 305 301 299 288 273 254 250 244 235 226 231 238 241 237 226 218 212 208 205 202 200 198 205 210 214 212 218 222 215 264 125 135 151 107 78 66 140 184 174 171 147 154 144
324 314 309 302 301 295 280 262 250 244 233 233 223 227 234 234 223 220 214 209 204 203 199 199 208 208 213 210 215 217 185 198 178 156 168 145 105 106 141 164 175 174 146 144 154
325 314 310 310 303 296 280 264 254 248 235 230 231 222 228 226 216 222 214 209 204 201 203 204 208 213 214 213 219 213 184 174 193 187 174 135 109 119 140 199 186 174 159 142 165
324 314 314 312 305 297 284 268 258 245 237 224 222 224 220 217 204 220 216 213 206 203 204 209 211 214 213 212 212 213 208 190 190 199 203 165 155 141 266 192 200 187 179 149 163
329 318 315 308 301 296 290 271 257 246 230 222 215 220 216 213 205 213 215 213 212 206 206 210 211 216 214 210 210 202 215 210 204 211 184 194 201 215 172 217 192 201 189 171 162
328 319 319 316 310 303 294 282 260 237 229 220 227 220 217 218 212 206 213 212 215 210 207 212 211 214 219 210 211 208 220 212 214 214 211 200 201 246 218 201 218 205 198 191 181
324 320 319 316 311 305 297 288 262 246 229 219 216 220 213 214 216 207 210 214 218 216 214 212 209 208 216 205 206 203 213 208 214 223 254 243 210 229 219 237 208 209 200 209 192
317 317 317 316 312 306 299 291 278 250 221 215 217 213 215 210 206 210 208 209 213 217 218 213 206 206 208 207 205 206 214 216 213 234 246 252 234 238 213 216 214 214 204 210 190
309 315 318 317 314 302 285 282 273 260 217 207 217 219 205 213 207 205 207 206 209 213 216 214 210 208 208 204 206 206 216 215 217 229 233 262 247 276 254 207 217 206 202 207 215
305 315 318 321 317 303 271 271 272 269 219 188 197 219 209 200 205 203 206 207 206 211 215 207 215 209 207 205 201 196 212 216 224 238 236 252 265 264 211 193 194 198 216 220 217
305 316 320 323 317 299 247 242 259 264 209 198 156 180 191 203 201 199 199 202 204 212 213 200 210 214 207 205 199 190 204 213 218 223 233 249 271 254 239 202 190 205 190 212 212
304 315 321 323 320 329 306 229 282 251 221 164 169 174 166 188 200 196 200 198 204 208 212 209 209 208 209 208 193 192 198 206 223 232 231 251 251 265 268 262 217 207 220 209 213
306 307 316 316 321 327 269 210 229 228 218 207 178 174 159 184 180 187 197 195 197 206 214 210 207 211 208 207 194 195 196 207 219 219 230 231 234 219 228 224 236 252 217 216 220
302 306 321 324 317 299 221 205 205 223 220 222 206 191 172 170 179 183 182 180 188 208 215 211 211 207 219 212 195 192 196 207 216 208 211 220 219 213 223 223 246 259 287 291 224
303 312 335 329 333 297 219 233 215 278 237 213 216 198 185 185 187 181 183 173 178 198 207 212 210 205 211 221 211 200 200 207 210 207 210 217 225 227 230 246 254 251 272 302 212
303 311 336 11 217 277 53 155 202 234 228 223 213 218 221 195 203 195 182 181 187 196 203 208 206 207 212 217 207 205 209 209 205 209 225 217 219 228 234 239 245 243 239 257 238
300 311 341 5 30 40 331 23 238 6 358 205 206 206 217 217 221 204 204 193 198 198 202 199 197 203 211 208 208 209 209 212 209 213 221 228 225 223 231 242 243 236 231 239 235
291 309 337 10 351 344 358 84 70 34 12 9 204 226 221 221 225 222 208 204 200 204 204 200 195 199 207 209 205 210 214 213 214 214 218 221 231 228 225 228 231 209 210 217 221
292 341 24 22 32 356 335 78 20 347 3 10 254 221 225 231 218 212 223 204 207 208 206 203 203 205 207 204 210 211 205 213 218 221 223 226 236 238 228 229 196 201 216 213 222
256 358 358 41 4 16 14 28 96 345 348 335 341 149 215 200 184 213 248 228 193 207 208 206 210 210 213 205 212 217 208 210 217 222 225 225 229 236 236 246 239 236 235 236 221
213 246 300 345 52 63 53 36 344 244 294 313 356 330 261 242 229 192 222 226 230 228 213 211 205 212 213 222 227 223 216 211 218 222 224 228 231 233 244 250 258 248 239 231 236
212 209 240 301 338 14 51 47 41 246 220 249 280 48 154 203 237 241 245 234 231 227 217 218 220 213 214 197 205 212 218 212 217 220 224 227 233 235 245 252 247 229 215 214 225
Height
5858 5855 5853 5852 5852 5852 5853 5854 5855 5857 5858 5859 5860 5862 5864 5866 5867 5867 5868 5872 5876 5881 5885 5887 5891 5893 5893 5894 5895 5899 5898 5894 5893 5895 5899 5901 5901 5901 5903 5906 5909 5909 5910 5913 5916
5851 5848 5845 5843 5842 5843 5845 5847 5848 5849 5852 5854 5855 5858 5860 5862 5863 5864 5868 5868 5874 5878 5882 5884 5888 5890 5891 5893 5894 5895 5893 5895 5896 5898 5900 5901 5902 5903 5905 5907 5911 5911 5912 5914 5917
5843 5840 5837 5835 5834 5834 5835 5837 5840 5842 5844 5847 5850 5853 5855 5858 5860 5862 5863 5866 5871 5875 5878 5881 5886 5888 5891 5893 5893 5892 5895 5896 5897 5899 5900 5901 5904 5902 5902 5906 5909 5909 5911 5915 5919
5837 5833 5830 5828 5827 5827 5827 5828 5829 5833 5837 5840 5843 5847 5850 5853 5857 5858 5861 5863 5867 5872 5877 5882 5884 5886 5890 5892 5893 5895 5895 5896 5898 5898 5900 5902 5903 5904 5904 5906 5909 5911 5911 5915 5918
5831 5827 5825 5822 5820 5819 5819 5820 5821 5823 5827 5832 5835 5840 5844 5848 5850 5855 5858 5860 5864 5869 5875 5879 5883 5882 5886 5892 5893 5898 5892 5888 5896 5897 5900 5901 5902 5902 5903 5904 5908 5913 5913 5915 5919
5825 5822 5819 5817 5815 5812 5811 5811 5813 5815 5818 5822 5827 5832 5837 5841 5846 5850 5853 5857 5861 5865 5870 5877 5877 5876 5883 5890 5891 5893 5895 5888 5892 5897 5900 5904 5902 5902 5903 5904 5907 5912 5913 5915 5920
5820 5816 5812 5810 5808 5806 5805 5804 5805 5807 5810 5813 5818 5824 5829 5834 5841 5843 5849 5853 5857 5862 5868 5870 5870 5874 5877 5886 5888 5891 5895 5898 5897 5899 5901 5903 5905 5905 5906 5906 5907 5912 5912 5914 5919
5815 5811 5807 5804 5801 5799 5798 5798 5798 5800 5802 5806 5810 5816 5820 5828 5834 5836 5842 5847 5852 5857 5863 5863 5867 5869 5874 5883 5887 5889 5891 5897 5897 5900 5901 5903 5905 5905 5906 5907 5908 5912 5913 5916 5920
5809 5805 5801 5798 5795 5793 5792 5792 5792 5794 5796 5799 5804 5808 5813 5821 5828 5829 5836 5842 5846 5851 5857 5859 5863 5867 5873 5880 5887 5889 5891 5894 5888 5899 5903 5904 5904 5904 5905 5907 5909 5911 5913 5917 5921
5805 5801 5796 5791 5788 5787 5786 5786 5787 5788 5790 5792 5797 5803 5806 5811 5818 5822 5830 5835 5841 5845 5850 5856 5860 5865 5871 5879 5885 5889 5889 5891 5892 5897 5901 5902 5901 5903 5903 5906 5907 5909 5912 5917 5919
5800 5796 5792 5790 5786 5781 5780 5781 5783 5783 5784 5789 5793 5795 5801 5806 5811 5817 5822 5828 5834 5840 5846 5850 5858 5863 5871 5879 5882 5885 5885 5885 5891 5894 5895 5897 5899 5901 5904 5905 5907 5909 5912 5915 5918
5796 5791 5789 5785 5782 5780 5775 5774 5775 5778 5780 5783 5786 5791 5796 5800 5806 5810 5816 5822 5829 5837 5842 5846 5854 5863 5867 5873 5876 5879 5881 5881 5885 5887 5891 5895 5898 5900 5902 5904 5905 5909 5911 5914 5915
5791 5786 5782 5780 5778 5775 5772 5769 5770 5771 5774 5778 5780 5785 5791 5796 5800 5805 5811 5816 5823 5829 5835 5841 5854 5854 5860 5867 5871 5874 5877 5879 5881 5884 5885 5890 5893 5895 5900 5902 5904 5905 5908 5912 5915
5786 5782 5778 5775 5773 5772 5768 5765 5763 5766 5770 5774 5777 5779 5786 5791 5795 5799 5805 5811 5816 5823 5828 5838 5842 5848 5854 5860 5867 5871 5875 5876 5878 5883 5887 5888 5889 5889 5895 5898 5900 5902 5907 5911 5913
5781 5777 5773 5768 5767 5765 5763 5760 5760 5761 5764 5767 5769 5773 5779 5784 5789 5795 5799 5805 5811 5817 5823 5835 5835 5842 5848 5857 5860 5872 5872 5873 5876 5879 5883 5885 5887 5888 5885 5892 5896 5900 5904 5908 5911
5776 5773 5768 5765 5762 5760 5759 5758 5759 5761 5761 5764 5764 5766 5773 5776 5781 5786 5792 5799 5805 5811 5816 5823 5829 5837 5845 5852 5857 5866 5865 5867 5872 5875 5878 5883 5885 5887 5889 5888 5895 5897 5901 5905 5909
5771 5768 5765 5761 5757 5757 5757 5758 5761 5759 5760 5761 5763 5765 5763 5770 5776 5782 5786 5792 5799 5806 5813 5820 5822 5828 5838 5846 5849 5854 5857 5863 5866 5869 5877 5879 5881 5885 5887 5887 5890 5896 5899 5903 5906
5766 5764 5761 5758 5755 5755 5755 5756 5758 5759 5759 5761 5763 5765 5765 5768 5770 5776 5783 5788 5794 5802 5808 5814 5819 5824 5830 5839 5844 5848 5852 5856 5859 5868 5874 5872 5874 5880 5883 5886 5890 5893 5898 5900 5903
5764 5760 5758 5756 5753 5754 5754 5754 5754 5757 5758 5757 5759 5761 5761 5763 5768 5772 5777 5784 5791 5796 5801 5807 5814 5820 5826 5831 5838 5843 5846 5852 5857 5865 5866 5868 5871 5875 5878 5882 5888 5891 5890 5892 5896
5762 5758 5756 5752 5752 5753 5753 5753 5753 5754 5752 5753 5757 5759 5760 5763 5765 5768 5773 5777 5781 5786 5793 5802 5811 5815 5821 5827 5837 5839 5844 5849 5854 5859 5859 5863 5866 5868 5874 5877 5883 5886 5888 5889 5892
5760 5755 5754 5754 5753 5750 5750 5752 5752 5751 5749 5749 5751 5755 5756 5759 5763 5769 5772 5775 5777 5781 5786 5796 5807 5813 5816 5820 5830 5836 5839 5844 5849 5853 5854 5857 5860 5862 5869 5875 5879 5884 5886 5889 5891
5758 5754 5753 5750 5751 5750 5751 5752 5752 5747 5745 5746 5747 5751 5753 5757 5760 5765 5770 5773 5776 5777 5784 5790 5800 5805 5810 5815 5824 5829 5833 5839 5843 5849 5849 5850 5854 5858 5864 5868 5871 5877 5883 5887 5890
5756 5754 5751 5746 5748 5748 5749 5748 5747 5747 5745 5744 5744 5747 5751 5755 5757 5761 5765 5769 5773 5776 5779 5787 5795 5801 5806 5812 5817 5822 5829 5833 5837 5839 5841 5845 5846 5855 5858 5861 5864 5870 5874 5881 5885
5756 5755 5752 5749 5749 5748 5748 5747 5747 5747 5746 5745 5744 5745 5746 5751 5754 5757 5761 5766 5768 5772 5776 5784 5791 5797 5801 5804 5810 5815 5820 5825 5829 5832 5836 5841 5843 5850 5855 5856 5858 5864 5870 5872 5877
5755 5755 5754 5751 5749 5748 5747 5746 5748 5749 5747 5745 5743 5743 5747 5749 5751 5756 5759 5761 5763 5769 5775 5781 5785 5792 5796 5799 5803 5809 5815 5818 5821 5827 5832 5837 5840 5843 5848 5850 5856 5861 5865 5868 5872
5754 5754 5754 5753 5752 5751 5749 5747 5747 5747 5748 5746 5747 5745 5746 5749 5752 5756 5760 5761 5764 5768 5774 5777 5783 5786 5790 5795 5801 5805 5808 5813 5817 5819 5824 5829 5835 5841 5843 5848 5852 5856 5861 5863 5866
5752 5753 5752 5753 5753 5752 5750 5749 5748 5747 5748 5748 5749 5749 5749 5750 5751 5755 5758 5760 5763 5768 5769 5774 5778 5782 5787 5789 5796 5800 5800 5804 5809 5815 5822 5827 5832 5838 5842 5846 5850 5853 5856 5858 5861